This data was downloaded from National Climate Data Center archives at www.ncdc.noaa.gov. View the readme file at ftp://ftp1.esrl.noaa.gov/psd3/arctic/sodankyla/temperature/0_DOCS/readme.txt for information and details on column headers.,,,,,,,,,,,,,,,,,,,,,
STN---,WBAN , YEARMODA,   TEMP,  ,   DEWP,  ,  SLP  ,  ,  STP  ,  , VISIB,  ,  WDSP,  , MXSPD,  GUST,   MAX  ,  MIN  ,PRCP  ,SNDP , FRSHTT
28160,99999,20080116,32.9,4,31.9,4,994.5,4,964.1,4,3.9,4,6.8,4,7.8,999.9,34,32.5, 0.12E,999.9,11000
28160,99999,20080117,30.7,8,29.8,8,998.3,8,967.6,8,1.8,8,4.9,8,5.8,999.9,32.7,  25.5*, 0.16E,999.9,11000
28160,99999,20080118,11.4,8,9,8,1011.4,8,979.2,8,24.3,8,1.7,7,3.9,999.9,27.5,-4.7,99.99,999.9,1000
28160,99999,20080119,28.7,8,27.7,8,997.7,8,967,8,6.3,8,5.1,8,5.8,999.9,30.2,18.9, 0.12E,999.9,1000
28160,99999,20080120,27.4,8,25.9,8,988.5,8,958,8,2.9,8,3.4,8,5.8,999.9,   29.5*,25.5, 0.04E,999.9,1000
28160,99999,20080121,28.5,8,26.7,8,994.2,8,963.5,8,3.4,8,6.3,8,7.8,999.9,30,25.5, 0.08E,999.9,1000
28160,99999,20080122,23,8,20.4,8,1008.3,8,976.9,8,9.8,8,6.3,8,9.7,999.9,28.4,20.1, 0.01E,999.9,1000
28160,99999,20080123,7.2,8,4.5,8,1016,8,983.3,8,28.4,8,2.4,8,3.9,999.9,23.5,-7.2, 0.00I,999.9,0
28160,99999,20080124,16.9,8,14.7,8,999.1,8,967.6,8,3.1,8,8,8,9.7,999.9,20.1,4.3, 0.24E,999.9,1000
28160,99999,20080125,14,8,12,8,985.8,8,954.6,8,14.1,8,1.2,8,1.9,999.9,18.5,   9.0*, 0.00E,999.9,1000
28160,99999,20080126,-2.7,8,-6.3,8,986.1,8,953.7,8,11.3,8,1.7,8,1.9,999.9,10.9,-9.4,99.99,999.9,1000
28160,99999,20080127,-13,8,-17.9,8,996.7,8,963.2,8,25.9,8,2.2,8,3.9,999.9,-6.9,-18.8, 0.00I,999.9,0
28160,99999,20080128,-3.8,8,-7.7,8,1006.8,8,973.6,8,17.3,8,3.6,8,5.8,999.9,   19.6*,-19.3, 0.03E,999.9,1000
28160,99999,20080129,26.5,8,24.3,8,990.3,8,959.6,8,12.9,8,8.3,8,9.7,999.9,29.8,7.2,99.99,999.9,1000
28160,99999,20080130,17.9,8,13,8,993.8,8,962.5,8,29.5,8,5.6,8,7.8,999.9,25.7,   0.5*,99.99,999.9,1000
28160,99999,20080131,16.2,8,14.3,8,995.1,8,963.6,8,11.4,8,2.4,8,3.9,999.9,19.2,-4.2, 0.00I,999.9,0
28160,99999,20080201,17.5,8,15.7,8,993,8,961.7,8,6,8,6.6,8,9.7,999.9,   25.2*,9, 0.16E,999.9,1000
28160,99999,20080202,24.1,8,22.2,8,986.2,8,955.5,8,19.3,8,4.6,8,7.8,999.9,26.6,  21.4*,99.99,999.9,1000
28160,99999,20080203,21.1,8,19.3,8,994.3,8,963.2,8,19.7,8,1.4,7,3.9,999.9,22.8,  19.6*,99.99,999.9,1000
28160,99999,20080204,2.8,8,-0.2,8,1011.3,8,978.5,8,15,8,1.7,8,3.9,999.9,22.8,-11, 0.00E,999.9,1000
28160,99999,20080205,3.9,8,0.9,8,1020,8,986.9,8,6.3,8,3.4,8,5.8,999.9,7.9,-11.6, 0.08E,999.9,1000
28160,99999,20080206,16.3,8,14.4,8,1020.6,8,988.4,8,3.3,8,5.8,8,7.8,999.9,22.3,-1.5, 0.04E,999.9,1000
28160,99999,20080207,24.5,8,23,8,1020.9,8,989.2,8,8.5,8,5.8,8,7.8,999.9,27.3,20.3, 0.00E,999.9,1000
28160,99999,20080208,26.8,8,25.1,8,1020.3,8,988.7,8,15.5,8,4.9,8,5.8,999.9,29.1,  23.7*,99.99,999.9,1000
28160,99999,20080209,13.3,7,11.2,7,1030,7,997.3,7,12.5,7,2.2,7,3.9,999.9,24.3,-1.5,99.99,999.9,1000
28160,99999,20080210,26.1,6,24.8,6,1026.7,6,994.9,6,16.1,6,5.8,6,7.8,999.9,32.2,-1.1, 0.00E,999.9,11000
28160,99999,20080211,20.5,8,19.2,8,1029,8,996.8,8,16.5,8,2.7,8,5.8,999.9,32,10.9,99.99,999.9,1000
28160,99999,20080212,28.4,8,26.2,8,1014,8,982.7,8,23,8,7.5,8,9.7,999.9,   33.8*,20.5,99.99,999.9,1000
28160,99999,20080213,27.1,4,22.6,4,1001.2,4,970.2,4,28.7,4,7.3,4,7.8,999.9,34.2,  21.2*, 0.00I,999.9,0
28160,99999,20080214,17.9,8,11.3,8,1015.9,8,983.9,8,17.9,8,7.5,8,9.7,999.9,22.1,14.9, 0.00E,999.9,1000
28160,99999,20080215,5.1,8,-0.2,8,1033.6,8,1000.2,8,28.4,8,4.4,8,5.8,999.9,16.7, -14.3*,99.99,999.9,1000
28160,99999,20080216,15.7,8,12,8,1015.2,8,983.1,8,24.5,8,5.8,8,9.7,999.9,25.2,  -2.6*, 0.04E,999.9,1000
28160,99999,20080217,5,8,2,8,1002.2,8,969.7,8,26.4,8,2.4,8,3.9,999.9,24.4,-6.9, 0.00I,999.9,0
28160,99999,20080218,9.2,8,6.7,8,999.8,8,967.7,8,26.5,8,2.9,8,3.9,999.9,17.6,-3.1, 0.00E,999.9,1000
28160,99999,20080219,8.9,8,6.3,8,1006.2,8,973.9,8,27.9,8,2.7,8,3.9,999.9,17.6,  -9.0*,99.99,999.9,1000
28160,99999,20080220,1.5,8,-1.9,8,1008.5,8,975.6,8,25.4,8,2.2,8,3.9,999.9,   12.4*,-16.8,99.99,999.9,1000
28160,99999,20080221,21.8,8,20.1,8,995.6,8,964.5,8,4.4,8,3.9,8,7.8,999.9,   25.9*,8.2, 0.02E,999.9,1000
28160,99999,20080222,24.8,8,23.4,8,972.9,8,942.7,8,4.5,8,7.3,8,7.8,999.9,27.1,  21.0*, 0.24E,999.9,1000
28160,99999,20080223,7.4,8,2.6,8,989.3,8,957.4,8,18.9,8,3.9,8,5.8,999.9,21.7, -16.1*,99.99,999.9,1000
28160,99999,20080224,-6.1,8,-10.8,8,995.9,8,962.8,8,13.8,8,4.4,8,7.8,999.9,11.5,-27.2, 0.00E,999.9,1000
28160,99999,20080225,15,8,12.1,8,980.6,8,949.5,8,4.2,8,4.4,8,7.8,999.9,17.2,11.1, 0.08E,999.9,1000
28160,99999,20080226,8.6,8,5.6,8,992.5,8,960.6,8,11.6,8,1.9,8,1.9,999.9,14.9,-0.9,99.99,999.9,1000
28160,99999,20080227,-6.4,8,-10.6,8,995.4,8,962.4,8,7.4,8,1.9,8,1.9,999.9,10,-17.5, 0.12E,999.9,1000
28160,99999,20080228,-4.1,8,-8.4,8,998.2,8,965.2,8,10.2,8,1.4,7,1.9,999.9,11.7, -21.1*, 0.04E,999.9,1000
28160,99999,20080229,-8.8,8,-13.4,8,1001.5,8,968.1,8,8.1,8,2.9,6,3.9,999.9,3.7,-25.6, 0.02E,999.9,1000
28160,99999,20080301,3.7,7,-0.2,7,994.8,7,962.5,7,12.7,7,4.7,7,5.8,999.9,11.3,-7.2, 0.02E,999.9,1000
28160,99999,20080302,10.4,8,7.2,8,992.9,8,961.1,8,3.5,8,5.6,8,7.8,999.9,14.5,2.3, 0.16E,999.9,1000
28160,99999,20080303,8.5,8,4.2,8,995.3,8,963.3,8,22.1,8,4.6,8,5.8,999.9,13.6,3.7,99.99,999.9,1000
28160,99999,20080304,3.5,8,-1.7,8,999.3,8,966.9,8,28.7,8,2.2,8,3.9,999.9,13.1,  -9.6*, 0.00I,999.9,0
28160,99999,20080305,-5.5,8,-10.5,8,1001.1,8,967.9,8,16.5,8,1.7,8,1.9,999.9,12.2,-19.5, 0.02E,999.9,1000
28160,99999,20080306,-1.1,8,-5.1,8,995.6,8,963,8,10.4,8,2.4,8,3.9,999.9,10.6, -13.7*, 0.08E,999.9,1000
28160,99999,20080307,-1,8,-5.8,8,1003.2,8,970.3,8,23.9,8,2.4,8,3.9,999.9,19.2,-22.9,99.99,999.9,1000
28160,99999,20080308,13.1,8,10.1,8,1009.8,8,977.7,8,11,8,2.4,8,3.9,999.9,19.8,-2.2,99.99,999.9,1000
28160,99999,20080309,15.5,8,12.5,8,1005.9,8,974,8,6.1,8,6.6,8,9.7,999.9,20.1,5.2, 0.00E,999.9,1000
28160,99999,20080310,28.1,8,27,8,996.5,8,965.8,8,9,8,5.6,8,9.7,999.9,33.1,18.5, 0.04E,999.9,1000
28160,99999,20080311,32.5,8,31.7,8,995.2,8,964.8,8,12.4,8,3.6,8,3.9,999.9,33.6,31.3, 0.02E,999.9,11000
28160,99999,20080312,29.3,8,27.5,8,1000.1,8,969.3,8,26.7,8,1.5,8,1.9,999.9,32.7,25.2,99.99,999.9,1000
28160,99999,20080313,29,8,26.8,8,1002.6,8,971.7,8,12.8,8,3.4,8,3.9,999.9,31.8,  25.7*,99.99,999.9,1000
28160,99999,20080314,18.5,8,14.3,8,1007.6,8,975.9,8,19.5,8,4.4,8,7.8,999.9,28.4,   7.3*, 0.02E,999.9,1000
28160,99999,20080315,12.4,8,8.6,8,1006.3,8,974.2,8,17.2,8,2.7,8,3.9,999.9,20.1,4.1,99.99,999.9,1000
28160,99999,20080316,22.2,8,19.4,8,1002,8,970.7,8,7.5,8,1.5,8,1.9,999.9,26.1,16.5, 0.04E,999.9,1000
28160,99999,20080317,21.9,8,15.2,8,1006.9,8,975.4,8,16.2,8,3.2,8,3.9,999.9,28.4,   5.9*,99.99,999.9,1000
28160,99999,20080318,10.9,8,6.5,8,1009.7,8,977.5,8,17.9,8,1.5,8,3.9,999.9,23.9,-2.6,99.99,999.9,1000
28160,99999,20080319,9.3,7,4.6,7,1009.6,7,977.2,7,19.1,7,1.9,7,1.9,999.9,24.1,-4,99.99,999.9,1000
28160,99999,20080320,-2.7,5,-7.1,5,1007.1,5,974,5,11.9,5,1.9,5,1.9,999.9,21.4,-14.3,99.99,999.9,1000
28160,99999,20080321,14.2,8,7,8,999.9,8,968.2,8,14.8,8,4.1,8,7.8,999.9,22.3,-3.1, 0.02E,999.9,1000
28160,99999,20080322,12.9,8,9,8,1003.7,8,971.8,8,5.9,8,2.7,8,5.8,999.9,19.8,3.9, 0.08E,999.9,1000
28160,99999,20080323,12.4,8,6.2,8,998.1,8,966.3,8,18.9,8,4.9,8,7.8,999.9,19.9,1,99.99,999.9,1000
28160,99999,20080324,14.9,7,10,7,986.1,7,954.8,7,9,7,4.2,7,5.8,999.9,21.4,9.7, 0.03E,999.9,1000
28160,99999,20080325,15.1,8,4.1,8,995.9,8,964.3,8,22.3,8,5.1,8,7.8,999.9,23.9,6.3,99.99,999.9,1000
28160,99999,20080326,14.8,8,10.6,8,999.7,8,967.9,8,15.7,8,4.6,8,7.8,999.9,27,-11.4, 0.08E,999.9,1000
28160,99999,20080327,23.8,8,21.4,8,990.5,8,959.7,8,5,8,6.3,8,7.8,999.9,28.6,  15.4*, 0.08E,999.9,1000
28160,99999,20080328,12.5,8,3.2,8,1003.8,8,971.8,8,27.1,8,4.6,8,5.8,999.9,27.3,-9.2,99.99,999.9,1000
28160,99999,20080329,22.6,7,19.3,7,1010.1,7,978.6,7,11.5,7,5.8,7,7.8,999.9,   32.2*,-0.8, 0.12E,999.9,1000
28160,99999,20080330,34.8,8,30.8,8,1011.2,8,980.4,8,10.4,8,8,8,11.7,999.9,41.4,30.2, 0.04E,999.9,11000
28160,99999,20080331,34.1,8,32.6,8,1011,8,980.1,8,9.3,8,7.3,8,9.7,999.9,35.8,32.9, 0.20E,999.9,11000
28160,99999,20080401,34.1,8,31.7,8,1012.5,8,981.7,8,13.3,8,3.9,8,5.8,999.9,39.2,  32.2*, 0.00I,999.9,0
28160,99999,20080402,31.4,8,25.6,8,1019.2,8,988,8,24.6,8,6.1,8,9.7,999.9,38.5,  25.9*, 0.00I,999.9,0
28160,99999,20080403,22.7,8,14.1,8,1030.2,8,998.1,8,24.5,8,3.6,8,5.8,999.9,30.4,14.4, 0.00I,999.9,0
28160,99999,20080404,22.6,8,18.3,8,1019.4,8,987.6,8,12.6,8,5.8,8,7.8,999.9,25.5,15.3, 0.08E,999.9,1000
28160,99999,20080405,21.3,8,18.6,8,1010.5,8,978.9,8,4.6,8,6.8,8,7.8,999.9,23.5,16.5, 0.43E,999.9,1000
28160,99999,20080406,24.4,8,21.1,8,1016,8,984.4,8,5,8,4.4,8,5.8,999.9,27,21.4, 0.04E,999.9,1000
28160,99999,20080407,20.6,8,13.4,8,1026.6,8,994.5,8,16.1,8,5.1,8,5.8,999.9,27.7,   8.8*,99.99,999.9,1000
28160,99999,20080408,15.7,8,8.2,8,1017.3,8,985.1,8,25.2,8,4.1,8,5.8,999.9,23.5,0.9, 0.00I,999.9,0
28160,99999,20080409,24.2,8,11.1,8,1008.8,8,977.4,8,20.2,8,6.1,8,7.8,999.9,29.5,17.4, 0.03E,999.9,11000
28160,99999,20080410,18,8,6.1,8,1010.8,8,978.9,8,26.8,8,3.6,8,5.8,999.9,27.5,  -0.6*, 0.00I,999.9,0
28160,99999,20080411,9.2,8,-3.2,8,1013.8,8,981.3,8,25.6,8,2.8,7,3.9,999.9,26.4,-12.8, 0.00I,999.9,0
28160,99999,20080412,14.4,8,4.5,8,1019.6,8,987.3,8,27.2,8,3.9,8,5.8,999.9,25.2,-9.6, 0.00I,999.9,0
28160,99999,20080413,21.2,8,5.9,8,1022,8,990,8,24.9,8,5.8,8,7.8,999.9,28.2,14.2,99.99,999.9,1000
28160,99999,20080414,22,8,17,8,1012.1,8,980.5,8,6.4,8,7.3,8,9.7,999.9,29.1,16.9, 0.16E,999.9,1000
28160,99999,20080415,31.1,8,22.8,8,1014.8,8,983.6,8,21.2,8,4.6,8,5.8,999.9,39.7,20.1, 0.00I,999.9,0
28160,99999,20080416,34.7,8,22.6,8,1015.2,8,984.3,8,19.8,8,7.5,8,11.7,999.9,40.3,30.4, 0.02E,999.9,11000
28160,99999,20080417,34.4,8,23.2,8,1010.7,8,979.9,8,27.2,8,5.8,8,9.7,999.9,42.3,25.7, 0.00I,999.9,0
28160,99999,20080418,29,8,20.4,8,1004.2,8,973.3,8,26,8,6.3,8,11.7,999.9,43.7,  17.4*, 0.02E,999.9,10000
28160,99999,20080419,26.6,8,16.3,8,1007.6,8,976.4,8,25.4,8,5.6,8,9.7,999.9,36.1,12.7, 0.00I,999.9,0
28160,99999,20080420,25.9,8,13.3,8,1011.7,8,980.3,8,25.6,8,3.4,8,5.8,999.9,37.8,9.5, 0.00I,999.9,0
28160,99999,20080421,24.2,8,14,8,1016.5,8,984.9,8,27.7,8,3.9,8,7.8,999.9,38.3,3.4, 0.00I,999.9,0
28160,99999,20080422,27.4,8,17.5,8,1020.8,8,989.2,8,26.3,8,4.1,8,7.8,999.9,37.4,9.3,99.99,999.9,10000
28160,99999,20080423,32.9,8,23.4,8,1014.3,8,983.4,8,28.7,8,3.6,8,5.8,999.9,   38.5*,24.1,99.99,999.9,11000
28160,99999,20080424,30.4,7,19.6,7,1013.7,7,982.6,7,24.4,7,5.6,7,9.7,999.9,38.7,  16.0*, 0.02E,999.9,1000
28160,99999,20080425,22.2,8,10.2,8,1022.5,8,990.6,8,21.1,8,4.4,8,5.8,999.9,32.7,9.1, 0.00I,999.9,0
28160,99999,20080426,23.9,8,9.7,8,1025.9,8,993.9,8,26,8,2.4,8,3.9,999.9,36.1,2.5, 0.00I,999.9,0
28160,99999,20080427,35.6,8,20.9,8,1019.6,8,988.6,8,28.4,8,4.6,8,5.8,999.9,46,24.8, 0.00I,999.9,0
28160,99999,20080428,39.4,6,31.5,6,1017,6,986.4,6,24.9,6,4.2,6,5.8,999.9,45.7,  34.2*, 0.00I,999.9,0
28160,99999,20080429,38.4,8,35.3,8,1018.7,8,988,8,12.5,8,4.1,8,5.8,999.9,45.5,33.1, 0.00E,999.9,0
28160,99999,20080430,43.9,8,35.7,8,1021.7,8,991.1,8,15.3,8,1.9,8,3.9,999.9,58.3,32.2, 0.00I,999.9,0
28160,99999,20080501,41.9,8,34.3,8,1026.3,8,995.5,8,15.7,8,4.4,8,5.8,999.9,51.3,28.9, 0.00I,999.9,0
28160,99999,20080502,41.1,8,32.6,8,1027.8,8,996.9,8,18.5,8,3.6,8,5.8,999.9,52.3,31.5, 0.00I,999.9,0
28160,99999,20080503,44.6,8,36.1,8,1026.7,8,996,8,18.3,8,2.4,8,3.9,999.9,59.2,34.5,99.99,999.9,10000
28160,99999,20080504,37.3,6,35.3,6,1022.1,6,991.2,6,7.5,6,2.6,6,3.9,999.9,54.9,28.4, 0.12E,999.9,110000
28160,99999,20080505,31.8,8,22.1,8,1025.1,8,993.7,8,21,8,7.3,8,9.7,999.9,41.9,  27.9*,99.99,999.9,11000
28160,99999,20080506,31,8,21.5,8,1023.5,8,992,8,22,8,3.6,8,5.8,999.9,36.3,26.6, 0.00E,999.9,11000
28160,99999,20080507,34.7,8,28.6,8,1014.3,8,983.4,8,17.7,8,2.2,8,3.9,999.9,40.3,29.7,99.99,999.9,1000
28160,99999,20080508,36.7,8,31.8,8,1014.7,8,983.9,8,22.5,8,2.9,8,5.8,999.9,43,32, 0.08E,999.9,10000
28160,99999,20080509,38.1,8,35.4,8,1012,8,981.4,8,16.6,8,2.7,8,3.9,999.9,44.4,34.5, 0.04E,999.9,110000
28160,99999,20080510,37.5,8,23.1,8,1012.3,8,981.7,8,26.8,8,7.5,8,9.7,999.9,41,  31.8*, 0.00I,999.9,0
28160,99999,20080511,33.5,8,25.3,8,1013,8,982.1,8,15.4,8,3.2,8,3.9,999.9,38.8,29.3, 0.12E,999.9,1000
28160,99999,20080512,34.7,8,26.5,8,1012.8,8,982,8,16.6,8,7.5,8,9.7,999.9,42.8,29.7,99.99,999.9,1000
28160,99999,20080513,31.4,8,26.6,8,1014.9,8,983.9,8,15.2,8,6.3,8,7.8,999.9,38.1,  26.2*, 0.08E,999.9,11000
28160,99999,20080514,30.5,8,22.5,8,1019.2,8,987.9,8,15.2,8,4.1,8,5.8,999.9,36.5,24.4, 0.00E,999.9,1000
28160,99999,20080515,29.9,8,19.9,8,1017.9,8,986.6,8,18.6,8,3.6,8,5.8,999.9,36,21.6, 0.00E,999.9,11000
28160,99999,20080516,27.5,8,22.3,8,1012.5,8,981.2,8,10,8,7,8,9.7,999.9,30.7,19.9, 0.04E,999.9,1000
28160,99999,20080517,31.2,8,27.9,8,1009.2,8,978.2,8,5.9,8,6.3,8,7.8,999.9,34.3,27.7, 0.12E,999.9,1000
28160,99999,20080518,33.2,8,28.6,8,1010.4,8,979.6,8,6.2,8,5.1,8,5.8,999.9,36,29.8, 0.04E,999.9,11000
28160,99999,20080519,33.3,8,25.9,8,1015.7,8,984.7,8,9.5,8,4.9,8,5.8,999.9,37,30.4, 0.00E,999.9,11000
28160,99999,20080520,33,8,24.9,8,1021.6,8,990.4,8,13.3,8,3.6,8,5.8,999.9,38.3,29.1, 0.02E,999.9,1000
28160,99999,20080521,32,7,21,7,1026.3,7,994.9,7,21.7,7,3.9,7,5.8,999.9,37.4,28.9, 0.00I,999.9,0
28160,99999,20080522,33.3,8,21.7,8,1032.7,8,1001.2,8,15.5,8,2.7,8,3.9,999.9,41.9,24.4,99.99,999.9,1000
28160,99999,20080523,39.8,8,21.1,8,1029.8,8,998.8,8,21.3,8,3.6,7,5.8,999.9,50.5,21.6, 0.00I,999.9,0
28160,99999,20080524,37.2,8,23,8,1027.8,8,996.7,8,26.4,8,3.9,7,5.8,999.9,47.1,26.2, 0.00I,999.9,0
28160,99999,20080525,39.9,8,25.2,8,1020.8,8,990,8,25.2,8,3.3,7,3.9,999.9,47.7,25.9, 0.00I,999.9,0
28160,99999,20080526,39,8,30.4,8,1013.4,8,982.8,8,24.5,8,3.9,8,5.8,999.9,44.6,35.8, 0.24E,999.9,10000
28160,99999,20080527,41.6,8,27.7,8,1015.9,8,985.4,8,30.3,8,4.9,8,7.8,999.9,49.3,32, 0.00I,999.9,0
28160,99999,20080528,46.2,8,33.2,8,1014.7,8,984.5,8,29.1,8,5.6,8,9.7,999.9,51.4,40.5, 0.01E,999.9,10000
28160,99999,20080529,46.9,8,34.6,8,1018.3,8,988,8,30.7,8,3.9,8,9.7,999.9,54.3,37.8, 0.00I,999.9,0
28160,99999,20080530,44.1,7,31.4,7,1021.2,7,990.7,7,30.6,7,4.4,7,5.8,999.9,52.2,38.5, 0.00I,999.9,0
28160,99999,20080531,54.9,8,31.8,8,1019.1,8,989.2,8,29.1,8,3.2,8,5.8,999.9,69.8,29.5, 0.00I,999.9,0
28160,99999,20080601,56.1,7,42.5,7,1013.4,7,983.8,7,30.6,7,3.9,7,5.8,999.9,68,50,99.99,999.9,10000
28160,99999,20080602,47.9,8,38.8,8,1017.8,8,987.6,8,25.7,8,5.1,8,9.7,999.9,58.1,  37.9*,99.99,999.9,10000
28160,99999,20080603,49.9,8,32.2,8,1022.7,8,992.5,8,20.2,8,3.6,8,5.8,999.9,63.5,33.1, 0.00I,999.9,0
28160,99999,20080604,48.1,8,31,8,1023.5,8,993.1,8,26,8,3.9,8,5.8,999.9,60.6,33.4, 0.00I,999.9,0
28160,99999,20080605,47.3,8,34.4,8,1020.9,8,990.6,8,30.3,8,3.9,8,7.8,999.9,57.6,35.4, 0.00I,999.9,0
28160,99999,20080606,41,8,25.4,8,1024.9,8,994.1,8,30.7,8,5.1,8,5.8,999.9,48.4,34.9,99.99,999.9,10000
28160,99999,20080607,43.9,8,28.1,8,1022,8,991.4,8,26.6,8,3.4,8,3.9,999.9,57.9,28,99.99,999.9,10000
28160,99999,20080608,36.9,8,27.1,8,1014.2,8,983.5,8,28.2,8,4.9,8,7.8,999.9,54,33.6,99.99,999.9,10000
28160,99999,20080609,38.1,8,21.4,8,1011,8,980.4,8,30.3,8,4.6,8,5.8,999.9,44.2,32.7, 0.00I,999.9,0
28160,99999,20080610,36.8,7,28.1,7,1007.1,7,976.6,7,26.6,7,3.3,7,7.8,999.9,   44.6*,25.5,99.99,999.9,10000
28160,99999,20080611,35.5,8,32.4,8,1001.4,8,971,8,13.6,8,3.9,8,5.8,999.9,42.1,31.1, 0.12E,999.9,11000
28160,99999,20080612,38.5,8,37.5,8,1001.7,8,971.4,8,8.1,8,3.9,8,5.8,999.9,43.2,32.4, 0.24E,999.9,11000
28160,99999,20080613,45.1,8,41,8,1008,8,977.9,8,14.5,8,3.6,8,5.8,999.9,54.1,37.8,99.99,999.9,10000
28160,99999,20080614,51.1,8,39.5,8,1010.3,8,980.5,8,23.6,8,3.9,8,5.8,999.9,61,37.2, 0.00I,999.9,0
28160,99999,20080615,55,8,41.5,8,1005.7,8,976.3,8,27.5,8,3.6,8,5.8,999.9,67.6,44.1, 0.08E,999.9,10000
28160,99999,20080616,46.7,8,44.2,8,1006.2,8,976.3,8,8.1,8,2.7,8,3.9,999.9,54.1,42.3, 0.02E,999.9,10000
28160,99999,20080617,52.5,8,47.2,8,1006.7,8,977.1,8,21.3,8,3.1,7,5.8,999.9,60.8,46.9, 0.43E,999.9,10000
28160,99999,20080618,54.9,8,46.2,8,1006,8,976.5,8,24.2,8,4.1,8,7.8,999.9,65.3,40.1, 0.00I,999.9,0
28160,99999,20080619,49.2,8,46.3,8,1005.7,8,975.9,8,11.3,8,4.4,8,5.8,999.9,60.4,45.5, 0.02E,999.9,10000
28160,99999,20080620,54.5,8,48.4,8,1006.8,8,977.3,8,18.9,8,2.9,8,5.8,999.9,66.2,45.7,99.99,999.9,10000
28160,99999,20080621,57.3,8,50.9,8,1004,8,974.8,8,21.4,8,5.3,8,9.7,999.9,66.7,  52.0*,99.99,999.9,10000
28160,99999,20080622,56,8,47.4,8,1006.3,8,976.9,8,28.4,8,4.4,8,7.8,999.9,62.6,  48.9*, 0.04E,999.9,10000
28160,99999,20080623,56.6,8,47.3,8,1003.2,8,974,8,29.5,8,3.4,8,3.9,999.9,64.4,45, 0.08E,999.9,0
28160,99999,20080624,58.9,8,48.3,8,998.2,8,969.2,8,27.2,8,5.1,8,9.7,999.9,71.6,48.6, 0.08E,999.9,10000
28160,99999,20080625,58.3,8,50.9,8,998.6,8,969.6,8,25.6,8,5.1,8,7.8,999.9,67.3,49.3, 0.02E,999.9,10000
28160,99999,20080626,50.5,8,48.1,8,997.2,8,967.8,8,17.6,8,4.6,8,7.8,999.9,58.1,  47.1*, 1.18E,999.9,10000
28160,99999,20080627,50,8,45.5,8,1001.6,8,972,8,23.1,8,4.9,8,7.8,999.9,56.3,46.8,99.99,999.9,10000
28160,99999,20080628,49.5,8,46.9,8,1009,8,979.2,8,9.9,8,2.9,8,3.9,999.9,54,44.2, 0.12E,999.9,10000
28160,99999,20080629,54.7,8,44.6,8,1012,8,982.4,8,18.3,8,4.1,8,5.8,999.9,62.6,47.8, 0.00I,999.9,0
28160,99999,20080630,60.1,8,45.4,8,1013.5,8,984.1,8,21.2,8,3.9,8,5.8,999.9,72.7,48, 0.04E,999.9,10000
28160,99999,20080701,59,8,54.1,8,1014.9,8,985.5,8,21.4,8,3.6,8,7.8,999.9,70.3,53.4, 0.31E,999.9,10000
28160,99999,20080702,62.6,8,51.8,8,1018.8,8,989.4,8,21.1,8,3.2,8,3.9,999.9,75.4,52.3, 0.02E,999.9,10000
28160,99999,20080703,62.9,8,48.1,8,1022,8,992.5,8,24,8,5,7,7.8,999.9,71.2,50.7, 0.00I,999.9,0
28160,99999,20080704,45.8,8,38.8,8,1023.2,8,992.8,8,25.9,8,6.8,8,9.7,999.9,65.5,  42.1*,99.99,999.9,10000
28160,99999,20080705,42.9,8,39.8,8,1017.9,8,987.4,8,19.2,8,6.6,8,7.8,999.9,46.6,40.1, 0.01E,999.9,10000
28160,99999,20080706,43.6,8,38.1,8,1015.2,8,984.8,8,26.9,8,8.5,8,9.7,999.9,50.5,40.5, 0.02E,999.9,10000
28160,99999,20080707,44.2,8,35.3,8,1009.9,8,979.7,8,30.3,8,6.8,8,7.8,999.9,50.9,37.6, 0.00I,999.9,0
28160,99999,20080708,46.7,8,39.3,8,1004.6,8,974.7,8,29.4,8,5.3,8,9.7,999.9,53.2,39.7,99.99,999.9,10000
28160,99999,20080709,50.9,7,42.5,7,1001.5,7,972,7,18.8,7,3.1,7,5.8,999.9,60.6,38.1, 0.00I,999.9,0
28160,99999,20080710,48.4,8,41.1,8,1003.7,8,974,8,26.7,8,3.9,8,5.8,999.9,57.9,46.9, 0.00I,999.9,0
28160,99999,20080711,50,8,44.2,8,1007.4,8,977.7,8,20.8,8,3.2,8,3.9,999.9,55,41, 0.02E,999.9,10000
28160,99999,20080712,52.4,8,50.3,8,1005.8,8,976.2,8,19.4,8,2.8,7,3.9,999.9,55.8,49.6, 0.12E,999.9,10000
28160,99999,20080713,56.5,8,50.9,8,1004.5,8,975.3,8,24.9,8,1.9,8,3.9,999.9,64.4,50.5, 0.02E,999.9,10000
28160,99999,20080714,59.1,8,50.9,8,1006,8,976.8,8,23.1,8,2.4,8,5.8,999.9,69.1,48.7, 0.04E,999.9,10000
28160,99999,20080715,61,8,49.7,8,1004.3,8,975.3,8,25.1,8,3.6,8,5.8,999.9,72.5,43.7, 0.00I,999.9,0
28160,99999,20080716,58,8,53.8,8,999.3,8,970.2,8,23.1,8,4.4,8,5.8,999.9,67.3,53.8, 0.08E,999.9,10000
28160,99999,20080717,59.2,8,48.9,8,999.7,8,970.7,8,25.8,8,4.4,8,7.8,999.9,69.8,49.3, 0.00I,999.9,0
28160,99999,20080718,55.6,8,49.8,8,1002.2,8,972.9,8,20.3,8,2.9,8,5.8,999.9,64,49.5, 0.04E,999.9,10000
28160,99999,20080719,57.1,8,49.3,8,1010.9,8,981.4,8,27.7,8,3.6,8,7.8,999.9,67.8,46.4, 0.03E,999.9,10000
28160,99999,20080720,61.2,8,52.2,8,1013.5,8,984.2,8,24.5,8,2.9,8,3.9,999.9,72,44.2, 0.00I,999.9,0
28160,99999,20080721,59.6,8,57.6,8,1004.6,8,975.5,8,14.3,7,3.6,7,3.9,999.9,68.5,56.1, 0.16E,999.9,10000
28160,99999,20080722,59.8,8,57.3,8,1000.4,8,971.5,8,18.1,8,4.4,8,5.8,999.9,64.9,  57.9*, 0.08E,999.9,10000
28160,99999,20080723,53.4,8,50.5,8,1009,8,979.4,8,17.6,8,5.3,8,9.7,999.9,60.1,50.4, 0.04E,999.9,10000
28160,99999,20080724,56.3,8,47.7,8,1019.4,8,989.7,8,29.9,8,5.6,8,9.7,999.9,63.9,  46.0*, 0.00I,999.9,0
28160,99999,20080725,52.3,8,49.2,8,1022.1,8,992,8,19.2,8,3.1,7,5.8,999.9,61.3,38.5, 0.20E,999.9,10000
28160,99999,20080726,54.1,8,45,8,1023.5,8,993.5,8,28.9,8,5.6,8,9.7,999.9,61.2,  50.0*, 0.00I,999.9,0
28160,99999,20080727,49.9,8,42.8,8,1026.6,8,996.3,8,27.1,8,4.1,8,5.8,999.9,57.4,43,99.99,999.9,10000
28160,99999,20080728,50.7,7,43.6,7,1027.5,7,997.2,7,30.2,7,3.6,7,5.8,999.9,58.6,  41.9*, 0.00I,999.9,0
28160,99999,20080729,52.9,8,41.8,8,1026.1,8,995.9,8,22.3,8,3.4,8,5.8,999.9,63.9,33.8, 0.00I,999.9,100000
28160,99999,20080730,55.6,5,51.9,5,1021.5,5,991.6,5,19.6,5,2.3,5,3.9,999.9,70.3,48.4, 0.28E,999.9,10000
28160,99999,20080731,48.7,7,43.9,7,1019.7,7,989.5,7,23.1,7,3.9,7,5.8,999.9,   54.9*,  43.0*, 0.00I,999.9,0
28160,99999,20080801,42.8,8,37.2,8,1019.2,8,988.7,8,25.4,8,5.3,8,7.8,999.9,49.3,33.8, 0.01E,999.9,10000
28160,99999,20080802,43.2,8,38.1,8,1014.8,8,984.4,8,27.6,8,5.6,8,9.7,999.9,50,37.8, 0.03E,999.9,10000
28160,99999,20080803,45,8,37.8,8,1014.9,8,984.6,8,25.9,8,3.6,8,5.8,999.9,52,38.3, 0.02E,999.9,10000
28160,99999,20080804,46.9,8,39.2,8,1016,8,985.8,8,25.2,8,2.9,8,3.9,999.9,54.3,  41.7*,99.99,999.9,10000
28160,99999,20080805,50.4,8,41.1,8,1015.5,8,985.6,8,27,8,2.4,8,3.9,999.9,59.9,37.2,99.99,999.9,10000
28160,99999,20080806,52.9,8,41.9,8,1011.5,8,981.8,8,28.4,8,3.2,8,5.8,999.9,60.1,46.4,99.99,999.9,10000
28160,99999,20080807,49,8,44.9,8,1006,8,976.2,8,22.4,8,1.7,8,1.9,999.9,57.4,  40.8*, 0.08E,999.9,10000
28160,99999,20080808,49.1,8,43.8,8,1003.1,8,973.4,8,24,8,2.7,8,3.9,999.9,55.8,39,99.99,999.9,10000
28160,99999,20080809,44.5,8,40.3,8,1001.7,8,971.8,8,20.7,8,4.4,8,5.8,999.9,52.9,34, 0.01E,999.9,10000
28160,99999,20080810,47.3,8,39.4,8,1001.4,8,971.6,8,23.1,8,3.6,8,5.8,999.9,55.9,41.4, 0.00I,999.9,0
28160,99999,20080811,50,8,40.4,8,1003.1,8,973.5,8,21,8,4.9,8,7.8,999.9,60.6,36, 0.00I,999.9,0
28160,99999,20080812,51.6,8,50.3,8,999,8,969.6,8,14.3,8,3.9,8,5.8,999.9,57.9,45.9, 0.39E,999.9,10000
28160,99999,20080813,57.8,8,54.3,8,999.3,8,970.2,8,15.4,8,3.9,8,7.8,999.9,64,53.4,99.99,999.9,10000
28160,99999,20080814,53.7,8,52.5,8,988.7,8,959.7,8,8,8,6.3,8,7.8,999.9,58.5,  50.9*, 0.12E,999.9,10000
28160,99999,20080815,48.4,8,46.2,8,1003.9,8,974.2,8,18.9,8,2.9,8,7.8,999.9,54,  40.3*, 0.12E,999.9,10000
28160,99999,20080816,48.1,8,41.5,8,1014.9,8,984.8,8,28.4,8,3.2,8,5.8,999.9,62.2,32, 0.01E,999.9,10000
28160,99999,20080817,49.8,7,41.8,7,1019.7,7,989.6,7,26.6,7,2.8,7,3.9,999.9,61.2,30.7, 0.00I,999.9,0
28160,99999,20080818,49.6,8,42.1,8,1020,8,989.9,8,24.9,8,3.9,7,5.8,999.9,60.1,34.3, 0.00I,999.9,100000
28160,99999,20080819,47.6,8,43.9,8,1011,8,981,8,19.7,8,5.6,8,7.8,999.9,54.9,  44.1*, 0.12E,999.9,10000
28160,99999,20080820,48.6,7,48,7,1004.8,7,975.1,7,9.7,7,3.6,7,3.9,999.9,53.6,43.5,99.99,999.9,10000
28160,99999,20080821,55.9,8,54.2,8,1002.2,8,973,8,10.9,8,2.2,8,3.9,999.9,63.3,  49.8*,99.99,999.9,10000
28160,99999,20080822,53.7,8,49.4,8,1001.2,8,971.9,8,20.7,8,2.9,6,3.9,999.9,63.1,43.5, 0.00I,999.9,100000
28160,99999,20080823,49.8,8,48.6,8,1005.8,8,976.1,8,10.4,8,2.4,8,3.9,999.9,56.8,44.8, 0.55E,999.9,10000
28160,99999,20080824,48.5,8,46.4,8,1014.1,8,984.1,8,13.8,8,2.7,8,3.9,999.9,51.4,45.7, 0.01E,999.9,10000
28160,99999,20080825,50.3,8,45,8,1018,8,988,8,12.3,8,3.2,8,5.8,999.9,55.8,46.8, 0.00I,999.9,0
28160,99999,20080826,48.4,8,41.7,8,1015.6,8,985.5,8,7.7,8,2.4,8,5.8,999.9,51.8,44.8, 0.00I,999.9,0
28160,99999,20080827,47.2,8,42.7,8,1010.9,8,980.9,8,10.6,8,2.4,8,3.9,999.9,52.5,  41.7*,99.99,999.9,10000
28160,99999,20080828,43.3,8,39.1,8,1007,8,976.8,8,15.4,7,2.3,6,3.9,999.9,52.5,29.8, 0.00I,999.9,0
28160,99999,20080829,44.2,8,41.1,8,1009.1,8,979,8,20.6,8,5.6,8,7.8,999.9,49.1,39.7,99.99,999.9,10000
28160,99999,20080830,39.3,8,35.1,8,1017.7,8,987,8,24.6,8,5.3,8,7.8,999.9,45.9,  33.3*,99.99,999.9,10000
28160,99999,20080831,41.4,8,34.7,8,1017.6,8,987,8,30.7,8,6.3,8,7.8,999.9,47.8,30.7,99.99,999.9,10000
28160,99999,20080901,35.4,8,33.1,8,1009.7,8,979,8,27.2,8,4.6,8,7.8,999.9,44.1,  28.8*, 0.08E,999.9,10000